Year,Month,Day,Hour,Minute,Value (Times are PST for temperature in C)
2017,05,23,00,00,16.00
2017,05,23,00,01,16.00
2017,05,23,00,02,16.00
2017,05,23,00,03,16.00
2017,05,23,00,04,16.00
2017,05,23,00,05,16.00
2017,05,23,00,06,15.90
2017,05,23,00,07,15.90
2017,05,23,00,08,15.90
2017,05,23,00,09,15.90
2017,05,23,00,10,15.90
2017,05,23,00,11,15.80
2017,05,23,00,12,15.80
2017,05,23,00,13,15.80
2017,05,23,00,14,15.80
2017,05,23,00,15,15.80
2017,05,23,00,16,15.80
2017,05,23,00,17,15.80
2017,05,23,00,18,15.70
2017,05,23,00,19,15.70
2017,05,23,00,20,15.70
2017,05,23,00,21,15.70
2017,05,23,00,22,15.70
2017,05,23,00,23,15.70
2017,05,23,00,24,15.70
2017,05,23,00,25,15.70
2017,05,23,00,26,15.60
2017,05,23,00,27,15.60
2017,05,23,00,28,15.60
2017,05,23,00,29,15.60
2017,05,23,00,30,15.60
2017,05,23,00,31,15.60
2017,05,23,00,32,15.50
2017,05,23,00,33,15.50
2017,05,23,00,34,15.40
2017,05,23,00,35,15.40
2017,05,23,00,36,15.40
2017,05,23,00,37,15.40
2017,05,23,00,38,15.30
2017,05,23,00,39,15.30
2017,05,23,00,40,15.30
2017,05,23,00,41,15.30
2017,05,23,00,42,15.30
2017,05,23,00,43,15.30
2017,05,23,00,44,15.30
2017,05,23,00,45,15.30
2017,05,23,00,46,15.30
2017,05,23,00,47,15.30
2017,05,23,00,48,15.20
2017,05,23,00,49,15.20
2017,05,23,00,50,15.20
2017,05,23,00,51,15.20
2017,05,23,00,52,15.20
2017,05,23,00,53,15.20
2017,05,23,00,54,15.10
2017,05,23,00,55,15.10
2017,05,23,00,56,15.10
2017,05,23,00,57,15.10
2017,05,23,00,58,15.10
2017,05,23,00,59,15.10
2017,05,23,01,00,15.10
2017,05,23,01,01,15.00
2017,05,23,01,02,15.00
2017,05,23,01,03,15.00
2017,05,23,01,04,15.00
2017,05,23,01,05,15.00
2017,05,23,01,06,14.90
2017,05,23,01,07,14.90
2017,05,23,01,08,14.90
2017,05,23,01,09,14.90
2017,05,23,01,10,14.90
2017,05,23,01,11,14.90
2017,05,23,01,12,14.90
2017,05,23,01,13,14.90
2017,05,23,01,14,14.80
2017,05,23,01,15,14.80
2017,05,23,01,16,14.80
2017,05,23,01,17,14.80
2017,05,23,01,18,14.80
2017,05,23,01,19,14.80
2017,05,23,01,20,14.80
2017,05,23,01,21,14.80
2017,05,23,01,22,14.80
2017,05,23,01,23,14.80
2017,05,23,01,24,14.80
2017,05,23,01,25,14.80
2017,05,23,01,26,14.70
2017,05,23,01,27,14.70
2017,05,23,01,28,14.70
2017,05,23,01,29,14.70
2017,05,23,01,30,14.70
2017,05,23,01,31,14.70
2017,05,23,01,32,14.70
2017,05,23,01,33,14.60
2017,05,23,01,34,14.60
2017,05,23,01,35,14.60
2017,05,23,01,36,14.60
2017,05,23,01,37,14.60
2017,05,23,01,38,14.50
2017,05,23,01,39,14.50
2017,05,23,01,40,14.50
2017,05,23,01,41,14.40
2017,05,23,01,42,14.40
2017,05,23,01,43,14.40
2017,05,23,01,44,14.40
2017,05,23,01,45,14.30
2017,05,23,01,46,14.30
2017,05,23,01,47,14.30
2017,05,23,01,48,14.30
2017,05,23,01,49,14.30
2017,05,23,01,50,14.30
2017,05,23,01,51,14.30
2017,05,23,01,52,14.30
2017,05,23,01,53,14.30
2017,05,23,01,54,14.30
2017,05,23,01,55,14.30
2017,05,23,01,56,14.30
2017,05,23,01,57,14.20
2017,05,23,01,58,14.20
2017,05,23,01,59,14.20
2017,05,23,02,00,14.20
2017,05,23,02,01,14.20
2017,05,23,02,02,14.20
2017,05,23,02,03,14.10
2017,05,23,02,04,14.10
2017,05,23,02,05,14.10
2017,05,23,02,06,14.20
2017,05,23,02,07,14.10
2017,05,23,02,08,14.20
2017,05,23,02,09,14.20
2017,05,23,02,10,14.20
2017,05,23,02,11,14.20
2017,05,23,02,12,14.20
2017,05,23,02,13,14.20
2017,05,23,02,14,14.20
2017,05,23,02,15,14.20
2017,05,23,02,16,14.20
2017,05,23,02,17,14.20
2017,05,23,02,18,14.20
2017,05,23,02,19,14.20
2017,05,23,02,20,14.20
2017,05,23,02,21,14.20
2017,05,23,02,22,14.20
2017,05,23,02,23,14.20
2017,05,23,02,24,14.20
2017,05,23,02,25,14.10
2017,05,23,02,26,14.10
2017,05,23,02,27,14.10
2017,05,23,02,28,14.10
2017,05,23,02,29,14.10
2017,05,23,02,30,14.10
2017,05,23,02,31,14.00
2017,05,23,02,32,14.00
2017,05,23,02,33,14.00
2017,05,23,02,34,13.90
2017,05,23,02,35,13.90
2017,05,23,02,36,13.90
2017,05,23,02,37,13.90
2017,05,23,02,38,13.90
2017,05,23,02,39,13.90
2017,05,23,02,40,13.90
2017,05,23,02,41,13.80
2017,05,23,02,42,13.80
2017,05,23,02,43,13.80
2017,05,23,02,44,13.80
2017,05,23,02,45,13.80
2017,05,23,02,46,13.80
2017,05,23,02,47,13.80
2017,05,23,02,48,13.80
2017,05,23,02,49,13.80
2017,05,23,02,50,13.80
2017,05,23,02,51,13.80
2017,05,23,02,52,13.80
2017,05,23,02,53,13.80
2017,05,23,02,54,13.70
2017,05,23,02,55,13.70
2017,05,23,02,56,13.70
2017,05,23,02,57,13.70
2017,05,23,02,58,13.70
2017,05,23,02,59,13.70
2017,05,23,03,00,13.60
2017,05,23,03,01,13.60
2017,05,23,03,02,13.60
2017,05,23,03,03,13.60
2017,05,23,03,04,13.60
2017,05,23,03,05,13.50
2017,05,23,03,06,13.50
2017,05,23,03,07,13.50
2017,05,23,03,08,13.40
2017,05,23,03,09,13.40
2017,05,23,03,10,13.40
2017,05,23,03,11,13.40
2017,05,23,03,12,13.40
2017,05,23,03,13,13.40
2017,05,23,03,14,13.40
2017,05,23,03,15,13.40
2017,05,23,03,16,13.40
2017,05,23,03,17,13.40
2017,05,23,03,18,13.40
2017,05,23,03,19,13.40
2017,05,23,03,20,13.40
2017,05,23,03,21,13.40
2017,05,23,03,22,13.30
2017,05,23,03,23,13.30
2017,05,23,03,24,13.30
2017,05,23,03,25,13.30
2017,05,23,03,26,13.30
2017,05,23,03,27,13.30
2017,05,23,03,28,13.30
2017,05,23,03,29,13.30
2017,05,23,03,30,13.30
2017,05,23,03,31,13.30
2017,05,23,03,32,13.30
2017,05,23,03,33,13.20
2017,05,23,03,34,13.20
2017,05,23,03,35,13.20
2017,05,23,03,36,13.20
2017,05,23,03,37,13.20
2017,05,23,03,38,13.20
2017,05,23,03,39,13.20
2017,05,23,03,40,13.20
2017,05,23,03,41,13.10
2017,05,23,03,42,13.10
2017,05,23,03,43,13.10
2017,05,23,03,44,13.10
2017,05,23,03,45,13.10
2017,05,23,03,46,13.10
2017,05,23,03,47,13.10
2017,05,23,03,48,13.10
2017,05,23,03,49,13.00
2017,05,23,03,50,13.00
2017,05,23,03,51,13.00
2017,05,23,03,52,13.00
2017,05,23,03,53,12.90
2017,05,23,03,54,12.90
2017,05,23,03,55,12.90
2017,05,23,03,56,12.90
2017,05,23,03,57,12.90
2017,05,23,03,58,12.90
2017,05,23,03,59,12.80
2017,05,23,04,00,12.80
2017,05,23,04,01,12.80
2017,05,23,04,02,12.80
2017,05,23,04,03,12.80
2017,05,23,04,04,12.80
2017,05,23,04,05,12.80
2017,05,23,04,06,12.80
2017,05,23,04,07,12.80
2017,05,23,04,08,12.70
2017,05,23,04,09,12.70
2017,05,23,04,10,12.70
2017,05,23,04,11,12.70
2017,05,23,04,12,12.70
2017,05,23,04,13,12.70
2017,05,23,04,14,12.70
2017,05,23,04,15,12.70
2017,05,23,04,16,12.60
2017,05,23,04,17,12.60
2017,05,23,04,18,12.60
2017,05,23,04,19,12.60
2017,05,23,04,20,12.50
2017,05,23,04,21,12.50
2017,05,23,04,22,12.50
2017,05,23,04,23,12.50
2017,05,23,04,24,12.40
2017,05,23,04,25,12.40
2017,05,23,04,26,12.40
2017,05,23,04,27,12.40
2017,05,23,04,28,12.40
2017,05,23,04,29,12.40
2017,05,23,04,30,12.40
2017,05,23,04,31,12.40
2017,05,23,04,32,12.30
2017,05,23,04,33,12.30
2017,05,23,04,34,12.30
2017,05,23,04,35,12.30
2017,05,23,04,36,12.30
2017,05,23,04,37,12.30
2017,05,23,04,38,12.30
2017,05,23,04,39,12.30
2017,05,23,04,40,12.20
2017,05,23,04,41,12.20
2017,05,23,04,42,12.20
2017,05,23,04,43,12.20
2017,05,23,04,44,12.20
2017,05,23,04,45,12.20
2017,05,23,04,46,12.20
2017,05,23,04,47,12.20
2017,05,23,04,48,12.10
2017,05,23,04,49,12.10
2017,05,23,04,50,12.10
2017,05,23,04,51,12.10
2017,05,23,04,52,12.10
2017,05,23,04,53,12.10
2017,05,23,04,54,12.10
2017,05,23,04,55,12.10
2017,05,23,04,56,12.10
2017,05,23,04,57,12.10
2017,05,23,04,58,12.10
2017,05,23,04,59,12.10
2017,05,23,05,00,12.00
2017,05,23,05,01,12.00
2017,05,23,05,02,12.00
2017,05,23,05,03,12.00
2017,05,23,05,04,11.90
2017,05,23,05,05,11.90
2017,05,23,05,06,11.90
2017,05,23,05,07,11.90
2017,05,23,05,08,11.90
2017,05,23,05,09,11.90
2017,05,23,05,10,11.90
2017,05,23,05,11,11.80
2017,05,23,05,12,11.80
2017,05,23,05,13,11.80
2017,05,23,05,14,11.80
2017,05,23,05,15,11.80
2017,05,23,05,16,11.80
2017,05,23,05,17,11.80
2017,05,23,05,18,11.80
2017,05,23,05,19,11.80
2017,05,23,05,20,11.80
2017,05,23,05,21,11.70
2017,05,23,05,22,11.70
2017,05,23,05,23,11.70
2017,05,23,05,24,11.70
2017,05,23,05,25,11.70
2017,05,23,05,26,11.70
2017,05,23,05,27,11.70
2017,05,23,05,28,11.70
2017,05,23,05,29,11.70
2017,05,23,05,30,11.60
2017,05,23,05,31,11.60
2017,05,23,05,32,11.60
2017,05,23,05,33,11.60
2017,05,23,05,34,11.60
2017,05,23,05,35,11.60
2017,05,23,05,36,11.60
2017,05,23,05,37,11.60
2017,05,23,05,38,11.60
2017,05,23,05,39,11.60
2017,05,23,05,40,11.70
2017,05,23,05,41,11.70
2017,05,23,05,42,11.70
2017,05,23,05,43,11.70
2017,05,23,05,44,11.70
2017,05,23,05,45,11.70
2017,05,23,05,46,11.70
2017,05,23,05,47,11.70
2017,05,23,05,48,11.70
2017,05,23,05,49,11.70
2017,05,23,05,50,11.70
2017,05,23,05,51,11.70
2017,05,23,05,52,11.70
2017,05,23,05,53,11.60
2017,05,23,05,54,11.70
2017,05,23,05,55,11.60
2017,05,23,05,56,11.60
2017,05,23,05,57,11.70
2017,05,23,05,58,11.70
2017,05,23,05,59,11.70
2017,05,23,06,00,11.70
2017,05,23,06,01,11.70
2017,05,23,06,02,11.80
2017,05,23,06,03,11.80
2017,05,23,06,04,11.80
2017,05,23,06,05,11.90
2017,05,23,06,06,12.00
2017,05,23,06,07,12.00
2017,05,23,06,08,12.10
2017,05,23,06,09,12.20
2017,05,23,06,10,12.30
2017,05,23,06,11,12.40
2017,05,23,06,12,12.50
2017,05,23,06,13,12.60
2017,05,23,06,14,12.70
2017,05,23,06,15,12.70
2017,05,23,06,16,12.70
2017,05,23,06,17,12.70
2017,05,23,06,18,12.70
2017,05,23,06,19,12.70
2017,05,23,06,20,12.60
2017,05,23,06,21,12.60
2017,05,23,06,22,12.60
2017,05,23,06,23,12.60
2017,05,23,06,24,12.60
2017,05,23,06,25,12.60
2017,05,23,06,26,12.60
2017,05,23,06,27,12.60
2017,05,23,06,28,12.60
2017,05,23,06,29,12.70
2017,05,23,06,30,12.70
2017,05,23,06,31,12.70
2017,05,23,06,32,12.70
2017,05,23,06,33,12.80
2017,05,23,06,34,12.80
2017,05,23,06,35,12.80
2017,05,23,06,36,12.90
2017,05,23,06,37,12.90
2017,05,23,06,38,13.00
2017,05,23,06,39,13.00
2017,05,23,06,40,13.10
2017,05,23,06,41,13.10
2017,05,23,06,42,13.20
2017,05,23,06,43,13.20
2017,05,23,06,44,13.30
2017,05,23,06,45,13.30
2017,05,23,06,46,13.40
2017,05,23,06,47,13.40
2017,05,23,06,48,13.50
2017,05,23,06,49,13.60
2017,05,23,06,50,13.60
2017,05,23,06,51,13.70
2017,05,23,06,52,13.70
2017,05,23,06,53,13.80
2017,05,23,06,54,13.80
2017,05,23,06,55,13.90
2017,05,23,06,56,13.90
2017,05,23,06,57,13.90
2017,05,23,06,58,14.00
2017,05,23,06,59,14.00
2017,05,23,07,00,14.10
2017,05,23,07,01,14.10
2017,05,23,07,02,14.10
2017,05,23,07,03,14.20
2017,05,23,07,04,14.20
2017,05,23,07,05,14.20
2017,05,23,07,06,14.30
2017,05,23,07,07,14.30
2017,05,23,07,08,14.30
2017,05,23,07,09,14.30
2017,05,23,07,10,14.40
2017,05,23,07,11,14.40
2017,05,23,07,12,14.50
2017,05,23,07,13,14.50
2017,05,23,07,14,14.60
2017,05,23,07,15,14.60
2017,05,23,07,16,14.60
2017,05,23,07,17,14.70
2017,05,23,07,18,14.70
2017,05,23,07,19,14.80
2017,05,23,07,20,14.80
2017,05,23,07,21,14.90
2017,05,23,07,22,14.90
2017,05,23,07,23,14.90
2017,05,23,07,24,15.00
2017,05,23,07,25,15.10
2017,05,23,07,26,15.10
2017,05,23,07,27,15.20
2017,05,23,07,28,15.20
2017,05,23,07,29,15.20
2017,05,23,07,30,15.30
2017,05,23,07,31,15.30
2017,05,23,07,32,15.30
2017,05,23,07,33,15.40
2017,05,23,07,34,15.40
2017,05,23,07,35,15.50
2017,05,23,07,36,15.50
2017,05,23,07,37,15.60
2017,05,23,07,38,15.60
2017,05,23,07,39,15.60
2017,05,23,07,40,15.60
2017,05,23,07,41,15.60
2017,05,23,07,42,15.60
2017,05,23,07,43,15.60
2017,05,23,07,44,15.60
2017,05,23,07,45,15.60
2017,05,23,07,46,15.60
2017,05,23,07,47,15.60
2017,05,23,07,48,15.60
2017,05,23,07,49,15.60
2017,05,23,07,50,15.60
2017,05,23,07,51,15.60
2017,05,23,07,52,15.60
2017,05,23,07,53,15.60
2017,05,23,07,54,15.60
2017,05,23,07,55,15.60
2017,05,23,07,56,15.60
2017,05,23,07,57,15.60
2017,05,23,07,58,15.70
2017,05,23,07,59,15.70
2017,05,23,08,00,15.70
2017,05,23,08,01,15.70
2017,05,23,08,02,15.70
2017,05,23,08,03,15.80
2017,05,23,08,04,15.80
2017,05,23,08,05,15.80
2017,05,23,08,06,15.80
2017,05,23,08,07,15.90
2017,05,23,08,08,15.90
2017,05,23,08,09,16.00
2017,05,23,08,10,16.00
2017,05,23,08,11,16.10
2017,05,23,08,12,16.10
2017,05,23,08,13,16.20
2017,05,23,08,14,16.20
2017,05,23,08,15,16.20
2017,05,23,08,16,16.30
2017,05,23,08,17,16.30
2017,05,23,08,18,16.40
2017,05,23,08,19,16.40
2017,05,23,08,20,16.50
2017,05,23,08,21,16.60
2017,05,23,08,22,16.60
2017,05,23,08,23,16.70
2017,05,23,08,24,16.70
2017,05,23,08,25,16.80
2017,05,23,08,26,16.70
2017,05,23,08,27,16.70
2017,05,23,08,28,16.70
2017,05,23,08,29,16.70
2017,05,23,08,30,16.70
2017,05,23,08,31,16.70
2017,05,23,08,32,16.70
2017,05,23,08,33,16.70
2017,05,23,08,34,16.80
2017,05,23,08,35,16.80
2017,05,23,08,36,16.90
2017,05,23,08,37,16.90
2017,05,23,08,38,16.90
2017,05,23,08,39,17.00
2017,05,23,08,40,17.00
2017,05,23,08,41,17.10
2017,05,23,08,42,17.20
2017,05,23,08,43,17.30
2017,05,23,08,44,17.30
2017,05,23,08,45,17.40
2017,05,23,08,46,17.40
2017,05,23,08,47,17.50
2017,05,23,08,48,17.50
2017,05,23,08,49,17.50
2017,05,23,08,50,17.60
2017,05,23,08,51,17.60
2017,05,23,08,52,17.60
2017,05,23,08,53,17.70
2017,05,23,08,54,17.70
2017,05,23,08,55,17.70
2017,05,23,08,56,17.70
2017,05,23,08,57,17.80
2017,05,23,08,58,17.80
2017,05,23,08,59,17.80
2017,05,23,09,00,17.80
2017,05,23,09,01,17.80
2017,05,23,09,02,17.80
2017,05,23,09,03,17.80
2017,05,23,09,04,17.80
2017,05,23,09,05,17.80
2017,05,23,09,06,17.70
2017,05,23,09,07,17.70
2017,05,23,09,08,17.70
2017,05,23,09,09,17.70
2017,05,23,09,10,17.80
2017,05,23,09,11,17.80
2017,05,23,09,12,17.90
2017,05,23,09,13,17.90
2017,05,23,09,14,18.00
2017,05,23,09,15,18.10
2017,05,23,09,16,18.20
2017,05,23,09,17,18.20
2017,05,23,09,18,18.20
2017,05,23,09,19,18.20
2017,05,23,09,20,18.10
2017,05,23,09,21,18.00
2017,05,23,09,22,17.90
2017,05,23,09,23,17.80
2017,05,23,09,24,17.80
2017,05,23,09,25,17.80
2017,05,23,09,26,17.80
2017,05,23,09,27,17.80
2017,05,23,09,28,17.70
2017,05,23,09,29,17.70
2017,05,23,09,30,17.70
2017,05,23,09,31,17.80
2017,05,23,09,32,17.90
2017,05,23,09,33,18.00
2017,05,23,09,34,18.20
2017,05,23,09,35,18.40
2017,05,23,09,36,18.60
2017,05,23,09,37,18.70
2017,05,23,09,38,18.90
2017,05,23,09,39,19.00
2017,05,23,09,40,19.10
2017,05,23,09,41,19.20
2017,05,23,09,42,19.30
2017,05,23,09,43,19.50
2017,05,23,09,44,19.70
2017,05,23,09,45,19.90
2017,05,23,09,46,20.10
2017,05,23,09,47,20.20
2017,05,23,09,48,20.20
2017,05,23,09,49,20.30
2017,05,23,09,50,20.30
2017,05,23,09,51,20.40
2017,05,23,09,52,20.40
2017,05,23,09,53,20.40
2017,05,23,09,54,20.50
2017,05,23,09,55,20.60
2017,05,23,09,56,20.60
2017,05,23,09,57,20.70
2017,05,23,09,58,20.70
2017,05,23,09,59,20.70
2017,05,23,10,00,20.70
2017,05,23,10,01,20.70
2017,05,23,10,02,20.70
2017,05,23,10,03,20.50
2017,05,23,10,04,20.40
2017,05,23,10,05,20.30
2017,05,23,10,06,20.00
2017,05,23,10,07,19.80
2017,05,23,10,08,19.70
2017,05,23,10,09,19.50
2017,05,23,10,10,19.40
2017,05,23,10,11,19.30
2017,05,23,10,12,19.20
2017,05,23,10,13,19.10
2017,05,23,10,14,19.00
2017,05,23,10,15,18.90
2017,05,23,10,16,18.90
2017,05,23,10,17,18.90
2017,05,23,10,18,18.90
2017,05,23,10,19,18.90
2017,05,23,10,20,19.00
2017,05,23,10,21,19.00
2017,05,23,10,22,19.10
2017,05,23,10,23,19.20
2017,05,23,10,24,19.20
2017,05,23,10,25,19.20
2017,05,23,10,26,19.10
2017,05,23,10,27,19.10
2017,05,23,10,28,19.10
2017,05,23,10,29,19.10
2017,05,23,10,30,19.00
2017,05,23,10,31,18.90
2017,05,23,10,32,18.80
2017,05,23,10,33,18.80
2017,05,23,10,34,18.80
2017,05,23,10,35,18.70
2017,05,23,10,36,18.70
2017,05,23,10,37,18.70
2017,05,23,10,38,18.70
2017,05,23,10,39,18.70
2017,05,23,10,40,18.70
2017,05,23,10,41,18.80
2017,05,23,10,42,18.80
2017,05,23,10,43,18.90
2017,05,23,10,44,19.00
2017,05,23,10,45,19.00
2017,05,23,10,46,19.10
2017,05,23,10,47,19.20
2017,05,23,10,48,19.30
2017,05,23,10,49,19.30
2017,05,23,10,50,19.50
2017,05,23,10,51,19.50
2017,05,23,10,52,19.60
2017,05,23,10,53,19.70
2017,05,23,10,54,19.70
2017,05,23,10,55,19.80
2017,05,23,10,56,19.80
2017,05,23,10,57,19.80
2017,05,23,10,58,19.90
2017,05,23,10,59,19.90
2017,05,23,11,00,19.90
2017,05,23,11,01,19.90
2017,05,23,11,02,19.90
2017,05,23,11,03,19.90
2017,05,23,11,04,19.80
2017,05,23,11,05,19.80
2017,05,23,11,06,19.70
2017,05,23,11,07,19.70
2017,05,23,11,08,19.60
2017,05,23,11,09,19.70
2017,05,23,11,10,19.70
2017,05,23,11,11,19.80
2017,05,23,11,12,19.80
2017,05,23,11,13,19.90
2017,05,23,11,14,20.00
2017,05,23,11,15,20.10
2017,05,23,11,16,20.20
2017,05,23,11,17,20.30
2017,05,23,11,18,20.40
2017,05,23,11,19,20.40
2017,05,23,11,20,20.50
2017,05,23,11,21,20.60
2017,05,23,11,22,20.70
2017,05,23,11,23,20.70
2017,05,23,11,24,20.70
2017,05,23,11,25,20.70
2017,05,23,11,26,20.70
2017,05,23,11,27,20.70
2017,05,23,11,28,20.80
2017,05,23,11,29,20.80
2017,05,23,11,30,20.70
2017,05,23,11,31,20.60
2017,05,23,11,32,20.60
2017,05,23,11,33,20.50
2017,05,23,11,34,20.50
2017,05,23,11,35,20.50
2017,05,23,11,36,20.40
2017,05,23,11,37,20.30
2017,05,23,11,38,20.20
2017,05,23,11,39,20.20
2017,05,23,11,40,20.30
2017,05,23,11,41,20.40
2017,05,23,11,42,20.50
2017,05,23,11,43,20.60
2017,05,23,11,44,20.70
2017,05,23,11,45,20.70
2017,05,23,11,46,20.80
2017,05,23,11,47,20.80
2017,05,23,11,48,20.90
2017,05,23,11,49,21.00
2017,05,23,11,50,21.10
2017,05,23,11,51,21.10
2017,05,23,11,52,21.20
2017,05,23,11,53,21.30
2017,05,23,11,54,21.40
2017,05,23,11,55,21.50
2017,05,23,11,56,21.50
2017,05,23,11,57,21.60
2017,05,23,11,58,21.50
2017,05,23,11,59,21.40
2017,05,23,12,00,21.30
2017,05,23,12,01,21.20
2017,05,23,12,02,21.20
2017,05,23,12,03,21.10
2017,05,23,12,04,21.10
2017,05,23,12,05,21.00
2017,05,23,12,06,21.10
2017,05,23,12,07,21.10
2017,05,23,12,08,21.20
2017,05,23,12,09,21.20
2017,05,23,12,10,21.20
2017,05,23,12,11,21.20
2017,05,23,12,12,21.20
2017,05,23,12,13,21.20
2017,05,23,12,14,21.20
2017,05,23,12,15,21.20
2017,05,23,12,16,21.20
2017,05,23,12,17,21.30
2017,05,23,12,18,21.30
2017,05,23,12,19,21.30
2017,05,23,12,20,21.30
2017,05,23,12,21,21.30
2017,05,23,12,22,21.20
2017,05,23,12,23,21.10
2017,05,23,12,24,21.10
2017,05,23,12,25,21.10
2017,05,23,12,26,21.00
2017,05,23,12,27,21.00
2017,05,23,12,28,21.10
2017,05,23,12,29,21.10
2017,05,23,12,30,21.10
2017,05,23,12,31,21.10
2017,05,23,12,32,21.20
2017,05,23,12,33,21.10
2017,05,23,12,34,21.10
2017,05,23,12,35,21.10
2017,05,23,12,36,21.20
2017,05,23,12,37,21.20
2017,05,23,12,38,21.10
2017,05,23,12,39,21.00
2017,05,23,12,40,20.90
2017,05,23,12,41,20.80
2017,05,23,12,42,20.80
2017,05,23,12,43,20.70
2017,05,23,12,44,20.70
2017,05,23,12,45,20.70
2017,05,23,12,46,20.80
2017,05,23,12,47,20.90
2017,05,23,12,48,20.90
2017,05,23,12,49,20.90
2017,05,23,12,50,21.00
2017,05,23,12,51,21.00
2017,05,23,12,52,21.00
2017,05,23,12,53,21.00
2017,05,23,12,54,21.00
2017,05,23,12,55,20.90
2017,05,23,12,56,20.90
2017,05,23,12,57,21.00
2017,05,23,12,58,21.00
2017,05,23,12,59,21.00
2017,05,23,13,00,21.00
2017,05,23,13,01,21.00
2017,05,23,13,02,21.00
2017,05,23,13,03,21.00
2017,05,23,13,04,21.00
2017,05,23,13,05,20.90
2017,05,23,13,06,20.80
2017,05,23,13,07,20.70
2017,05,23,13,08,20.70
2017,05,23,13,09,20.60
2017,05,23,13,10,20.50
2017,05,23,13,11,20.40
2017,05,23,13,12,20.50
2017,05,23,13,13,20.50
2017,05,23,13,14,20.60
2017,05,23,13,15,20.60
2017,05,23,13,16,20.70
2017,05,23,13,17,20.70
2017,05,23,13,18,20.70
2017,05,23,13,19,20.80
2017,05,23,13,20,20.90
2017,05,23,13,21,20.90
2017,05,23,13,22,20.80
2017,05,23,13,23,20.80
2017,05,23,13,24,20.80
2017,05,23,13,25,20.70
2017,05,23,13,26,20.60
2017,05,23,13,27,20.60
2017,05,23,13,28,20.50
2017,05,23,13,29,20.40
2017,05,23,13,30,20.40
2017,05,23,13,31,20.50
2017,05,23,13,32,20.50
2017,05,23,13,33,20.40
2017,05,23,13,34,20.50
2017,05,23,13,35,20.50
2017,05,23,13,36,20.50
2017,05,23,13,37,20.50
2017,05,23,13,38,20.50
2017,05,23,13,39,20.40
2017,05,23,13,40,20.40
2017,05,23,13,41,20.40
2017,05,23,13,42,20.40
2017,05,23,13,43,20.40
2017,05,23,13,44,20.40
2017,05,23,13,45,20.30
2017,05,23,13,46,20.30
2017,05,23,13,47,20.20
2017,05,23,13,48,20.10
2017,05,23,13,49,20.10
2017,05,23,13,50,20.00
2017,05,23,13,51,20.10
2017,05,23,13,52,20.00
2017,05,23,13,53,20.10
2017,05,23,13,54,20.10
2017,05,23,13,55,20.10
2017,05,23,13,56,20.20
2017,05,23,13,57,20.20
2017,05,23,13,58,20.20
2017,05,23,13,59,20.20
2017,05,23,14,00,20.20
2017,05,23,14,01,20.30
2017,05,23,14,02,20.40
2017,05,23,14,03,20.40
2017,05,23,14,04,20.40
2017,05,23,14,05,20.40
2017,05,23,14,06,20.40
2017,05,23,14,07,20.50
2017,05,23,14,08,20.50
2017,05,23,14,09,20.50
2017,05,23,14,10,20.50
2017,05,23,14,11,20.50
2017,05,23,14,12,20.50
2017,05,23,14,13,20.50
2017,05,23,14,14,20.50
2017,05,23,14,15,20.60
2017,05,23,14,16,20.60
2017,05,23,14,17,20.60
2017,05,23,14,18,20.50
2017,05,23,14,19,20.50
2017,05,23,14,20,20.40
2017,05,23,14,21,20.40
2017,05,23,14,22,20.30
2017,05,23,14,23,20.20
2017,05,23,14,24,20.10
2017,05,23,14,25,20.00
2017,05,23,14,26,19.90
2017,05,23,14,27,19.90
2017,05,23,14,28,19.80
2017,05,23,14,29,19.70
2017,05,23,14,30,19.70
2017,05,23,14,31,19.70
2017,05,23,14,32,19.70
2017,05,23,14,33,19.60
2017,05,23,14,34,19.60
2017,05,23,14,35,19.60
2017,05,23,14,36,19.50
2017,05,23,14,37,19.60
2017,05,23,14,38,19.70
2017,05,23,14,39,19.60
2017,05,23,14,40,19.40
2017,05,23,14,41,19.30
2017,05,23,14,42,19.10
2017,05,23,14,43,19.00
2017,05,23,14,44,18.90
2017,05,23,14,45,18.80
2017,05,23,14,46,18.80
2017,05,23,14,47,18.80
2017,05,23,14,48,18.70
2017,05,23,14,49,18.60
2017,05,23,14,50,18.50
2017,05,23,14,51,18.40
2017,05,23,14,52,18.30
2017,05,23,14,53,18.20
2017,05,23,14,54,18.10
2017,05,23,14,55,18.00
2017,05,23,14,56,18.00
2017,05,23,14,57,17.90
2017,05,23,14,58,17.80
2017,05,23,14,59,17.80
2017,05,23,15,00,17.90
2017,05,23,15,01,17.90
2017,05,23,15,02,18.00
2017,05,23,15,03,18.10
2017,05,23,15,04,18.20
2017,05,23,15,05,18.20
2017,05,23,15,06,18.10
2017,05,23,15,07,18.00
2017,05,23,15,08,17.90
2017,05,23,15,09,17.90
2017,05,23,15,10,17.90
2017,05,23,15,11,17.90
2017,05,23,15,12,17.90
2017,05,23,15,13,17.90
2017,05,23,15,14,18.00
2017,05,23,15,15,18.00
2017,05,23,15,16,18.10
2017,05,23,15,17,18.10
2017,05,23,15,18,18.10
2017,05,23,15,19,18.20
2017,05,23,15,20,18.30
2017,05,23,15,21,18.50
2017,05,23,15,22,18.60
2017,05,23,15,23,18.70
2017,05,23,15,24,18.80
2017,05,23,15,25,18.90
2017,05,23,15,26,18.90
2017,05,23,15,27,18.90
2017,05,23,15,28,18.80
2017,05,23,15,29,18.80
2017,05,23,15,30,18.80
2017,05,23,15,31,18.70
2017,05,23,15,32,18.70
2017,05,23,15,33,18.60
2017,05,23,15,34,18.60
2017,05,23,15,35,18.50
2017,05,23,15,36,18.50
2017,05,23,15,37,18.60
2017,05,23,15,38,18.60
2017,05,23,15,39,18.50
2017,05,23,15,40,18.40
2017,05,23,15,41,18.40
2017,05,23,15,42,18.30
2017,05,23,15,43,18.30
2017,05,23,15,44,18.20
2017,05,23,15,45,18.10
2017,05,23,15,46,18.00
2017,05,23,15,47,18.00
2017,05,23,15,48,18.00
2017,05,23,15,49,18.00
2017,05,23,15,50,18.00
2017,05,23,15,51,18.00
2017,05,23,15,52,18.00
2017,05,23,15,53,18.00
2017,05,23,15,54,17.90
2017,05,23,15,55,17.90
2017,05,23,15,56,17.80
2017,05,23,15,57,17.70
2017,05,23,15,58,17.70
2017,05,23,15,59,17.60
2017,05,23,16,00,17.50
2017,05,23,16,01,17.40
2017,05,23,16,02,17.40
2017,05,23,16,03,17.20
2017,05,23,16,04,17.00
2017,05,23,16,05,16.90
2017,05,23,16,06,16.70
2017,05,23,16,07,16.70
2017,05,23,16,08,16.70
2017,05,23,16,09,16.70
2017,05,23,16,10,16.80
2017,05,23,16,11,16.80
2017,05,23,16,12,16.90
2017,05,23,16,13,16.90
2017,05,23,16,14,16.90
2017,05,23,16,15,16.90
2017,05,23,16,16,16.90
2017,05,23,16,17,16.90
2017,05,23,16,18,16.90
2017,05,23,16,19,16.90
2017,05,23,16,20,16.90
2017,05,23,16,21,16.90
2017,05,23,16,22,16.90
2017,05,23,16,23,16.80
2017,05,23,16,24,16.80
2017,05,23,16,25,16.80
2017,05,23,16,26,16.80
2017,05,23,16,27,16.80
2017,05,23,16,28,16.80
2017,05,23,16,29,16.70
2017,05,23,16,30,16.70
2017,05,23,16,31,16.70
2017,05,23,16,32,16.70
2017,05,23,16,33,16.70
2017,05,23,16,34,16.80
2017,05,23,16,35,16.80
2017,05,23,16,36,16.80
2017,05,23,16,37,16.80
2017,05,23,16,38,16.80
2017,05,23,16,39,16.70
2017,05,23,16,40,16.70
2017,05,23,16,41,16.60
2017,05,23,16,42,16.60
2017,05,23,16,43,16.40
2017,05,23,16,44,16.20
2017,05,23,16,45,16.10
2017,05,23,16,46,16.10
2017,05,23,16,47,16.00
2017,05,23,16,48,16.00
2017,05,23,16,49,15.90
2017,05,23,16,50,15.90
2017,05,23,16,51,15.80
2017,05,23,16,52,15.80
2017,05,23,16,53,15.80
2017,05,23,16,54,15.70
2017,05,23,16,55,15.70
2017,05,23,16,56,15.70
2017,05,23,16,57,15.60
2017,05,23,16,58,15.50
2017,05,23,16,59,15.40
2017,05,23,17,00,15.30
2017,05,23,17,01,15.20
2017,05,23,17,02,15.10
2017,05,23,17,03,15.10
2017,05,23,17,04,15.00
2017,05,23,17,05,14.90
2017,05,23,17,06,14.90
2017,05,23,17,07,14.80
2017,05,23,17,08,14.80
2017,05,23,17,09,14.70
2017,05,23,17,10,14.60
2017,05,23,17,11,14.50
2017,05,23,17,12,14.50
2017,05,23,17,13,14.50
2017,05,23,17,14,14.50
2017,05,23,17,15,14.50
2017,05,23,17,16,14.40
2017,05,23,17,17,14.40
2017,05,23,17,18,14.40
2017,05,23,17,19,14.40